Location: Lombard
(41.8800°N, 88.0080°W)
Time: 22:54:13
(UTC-05:00)

Transit 2A - Pass Details

Date: 10 February 2023
Orbit: 591 x 964 km, 66.7° (Epoch: 20 March)

Event Time Altitude Azimuth Distance (km) Brightness Sun altitude
Rises 01:47:32 0° 314° (NW) 3,583 - -54.9°
Reaches altitude 10° 01:50:49 10° 297° (WNW) 2,671 - -54.4°
Maximum altitude 01:54:57 19° 256° (WSW) 2,135 - -53.9°
Drops below altitude 10° 01:59:07 10° 214° (SW) 2,692 - -53.3°
Sets 02:02:27 0° 197° (SSW) 3,620 - -52.8°
